GW0245 Weather Reports


Display with metric or nautical units.
time (UTC)temp
F
wind
direction
speed
MPH
gust
MPH
rain 1hr
in
rain 24hr
in
rain mn
in
humidity
%
barometer
mb
20260509041556 81 255 12.0 21.0 0.00 0.00 0.00 15 1012.9
20260509040100 82 252 11.0 21.0 0.00 0.00 0.00 15 1012.8
20260509034558 82 248 12.0 23.0 0.00 0.00 0.00 15 1012.6
20260509033109 83 271 14.0 25.0 0.00 0.00 0.00 15 1012.5
20260509031605 83 259 13.0 24.0 0.00 0.00 0.00 15 1012.4
20260509030057 83 256 10.0 19.0 0.00 0.00 0.00 15 1012.1
20260509024555 83 253 9.0 17.0 0.00 0.00 0.00 15 1012.0
20260509023104 84 270 8.0 23.0 0.00 0.00 0.00 15 1011.7
20260509021555 84 277 11.0 21.0 0.00 0.00 0.00 14 1011.7
20260509020055 85 275 11.0 22.0 0.00 0.00 0.00 14 1011.5
20260509014555 86 267 9.0 20.0 0.00 0.00 0.00 14 1011.2
20260509013110 87 250 12.0 25.0 0.00 0.00 0.00 13 1011.2
20260509011556 88 229 10.0 21.0 0.00 0.00 0.00 13 1011.2
20260509010055 88 254 10.0 21.0 0.00 0.00 0.00 12 1011.2
20260509004611 90 270 9.0 19.0 0.00 0.00 0.00 12 1011.3
20260509003055 91 274 8.0 20.0 0.00 0.00 0.00 12 1011.2
20260509001556 92 278 9.0 19.0 0.00 0.00 0.00 11 1011.3
20260509000055 92 259 9.0 18.0 0.00 0.00 0.00 11 1011.2
20260508234555 93 240 5.0 13.0 0.00 0.00 0.00 11 1011.2
20260508233125 94 241 9.0 15.0 0.00 0.00 0.00 10 1011.4
20260508231558 93 227 7.0 17.0 0.00 0.00 0.00 10 1011.4
20260508230059 94 318 9.0 15.0 0.00 0.00 0.00 10 1011.5
20260508224619 93 0 3.0 9.0 0.00 0.00 0.00 10 1011.4
20260508223058 93 264 5.0 14.0 0.00 0.00 0.00 10 1011.7
20260508221555 94 0 2.0 9.0 0.00 0.00 0.00 9 1011.9
20260508220059 94 328 9.0 19.0 0.00 0.00 0.00 9 1012.1
20260508214555 92 348 5.0 12.0 0.00 0.00 0.00 9 1012.1
20260508213054 93 22 5.0 18.0 0.00 0.00 0.00 9 1012.3
20260508211555 93 342 5.0 15.0 0.00 0.00 0.00 8 1012.6
20260508210058 93 242 4.0 14.0 0.00 0.00 0.00 8 1012.8
20260508204556 93 275 7.0 14.0 0.00 0.00 0.00 8 1012.9
20260508203058 92 42 6.0 16.0 0.00 0.00 0.00 9 1013.0
20260508201558 91 246 5.0 10.0 0.00 0.00 0.00 9 1013.3
20260508200108 91 291 3.0 9.0 0.00 0.00 0.00 10 1013.5
20260508194603 90 128 4.0 12.0 0.00 0.00 0.00 10 1013.8
20260508193105 90 161 4.0 10.0 0.00 0.00 0.00 11 1014.1
20260508191555 89 75 4.0 8.0 0.00 0.00 0.00 11 1014.5
20260508190057 87 86 3.0 9.0 0.00 0.00 0.00 12 1014.8
20260508184556 85 59 4.0 10.0 0.00 0.00 0.00 13 1015.0
20260508183055 84 40 3.0 9.0 0.00 0.00 0.00 14 1015.3
20260508181556 83 123 4.0 8.0 0.00 0.00 0.00 15 1015.5
20260508180057 82 130 4.0 10.0 0.00 0.00 0.00 14 1015.6
20260508174610 80 18 3.0 8.0 0.00 0.00 0.00 14 1015.9
20260508173053 80 88 3.0 7.0 0.00 0.00 0.00 14 1016.2
20260508171557 78 51 2.0 6.0 0.00 0.00 0.00 15 1016.3
20260508170059 78 57 2.0 8.0 0.00 0.00 0.00 15 1016.5
20260508164604 77 0 2.0 6.0 0.00 0.00 0.00 16 1016.7
20260508163103 76 0 1.0 5.0 0.00 0.00 0.00 16 1016.8
20260508161559 75 87 0.0 5.0 0.00 0.00 0.00 16 1016.8
20260508160112 73 41 1.0 4.0 0.00 0.00 0.00 17 1016.9
20260508154603 72 26 1.0 4.0 0.00 0.00 0.00 17 1016.9
20260508153058 71 0 1.0 3.0 0.00 0.00 0.00 18 1017.2
20260508151600 70 43 0.0 3.0 0.00 0.00 0.00 19 1017.2
20260508150053 68 0 0.0 2.0 0.00 0.00 0.00 20 1017.1
20260508144556 67 0 0.0 3.0 0.00 0.00 0.00 21 1017.2
20260508143101 66 0 0.0 1.0 0.00 0.00 0.00 22 1017.2
20260508141556 64 0 0.0 2.0 0.00 0.00 0.00 22 1017.2
20260508140059 64 44 0.0 4.0 0.00 0.00 0.00 22 1017.0
20260508134557 63 0 0.0 1.0 0.00 0.00 0.00 22 1016.8
20260508133100 60 0 0.0 1.0 0.00 0.00 0.00 24 1016.7
20260508131558 58 0 0.0 1.0 0.00 0.00 0.00 27 1016.6
20260508130106 55 0 0.0 4.0 0.00 0.00 0.00 27 1016.5
20260508124556 54 0 0.0 0.0 0.00 0.00 0.00 27 1016.2
20260508123058 55 0 0.0 0.0 0.00 0.00 0.00 26 1016.2
20260508121629 56 119 0.0 3.0 0.00 0.00 0.00 26 1016.0
20260508120057 56 0 0.0 1.0 0.00 0.00 0.00 26 1015.9
20260508114555 55 0 0.0 3.0 0.00 0.00 0.00 26 1015.7
20260508113054 56 0 0.0 1.0 0.00 0.00 0.00 26 1015.8
20260508111553 57 0 0.0 1.0 0.00 0.00 0.00 25 1015.7
20260508110059 56 279 0.0 4.0 0.00 0.00 0.00 25 1015.7
20260508104600 57 0 0.0 1.0 0.00 0.00 0.00 24 1015.6
20260508103056 57 0 0.0 0.0 0.00 0.00 0.00 24 1015.5
20260508101557 58 0 0.0 1.0 0.00 0.00 0.00 24 1015.5
20260508094600 59 0 0.0 1.0 0.00 0.00 0.00 23 1015.3
20260508093056 60 0 0.0 1.0 0.00 0.00 0.00 22 1015.1
20260508091604 60 0 0.0 1.0 0.00 0.00 0.00 22 1015.3
20260508090108 61 0 0.0 3.0 0.00 0.00 0.00 22 1015.4
20260508084557 61 254 0.0 3.0 0.00 0.00 0.00 21 1015.4
20260508083055 62 0 0.0 4.0 0.00 0.00 0.00 21 1015.3
20260508081608 61 248 1.0 4.0 0.00 0.00 0.00 22 1015.3
20260508080056 61 0 0.0 4.0 0.00 0.00 0.00 22 1015.4
20260508074556 62 253 0.0 3.0 0.00 0.00 0.00 22 1015.6
20260508073104 63 273 1.0 4.0 0.00 0.00 0.00 21 1015.6
20260508071613 63 263 1.0 4.0 0.00 0.00 0.00 21 1015.6
20260508064556 64 296 0.0 2.0 0.00 0.00 0.00 20 1015.6
20260508063054 65 0 0.0 4.0 0.00 0.00 0.00 20 1015.5
20260508061556 65 260 1.0 4.0 0.00 0.00 0.00 20 1015.5
20260508060058 65 0 0.0 3.0 0.00 0.00 0.00 20 1015.4
20260508054608 67 275 0.0 2.0 0.00 0.00 0.00 18 1015.5
20260508053055 69 275 0.0 3.0 0.00 0.00 0.00 16 1015.5
20260508051553 70 336 0.0 6.0 0.00 0.00 0.00 16 1015.4
20260508050057 70 0 0.0 2.0 0.00 0.00 0.00 16 1015.3
20260508044601 74 0 1.0 6.0 0.00 0.00 0.00 14 1015.0
20260508043054 74 40 1.0 10.0 0.00 0.00 0.00 14 1014.7